Hourly Weather Canillo

Today, 7 July, Tuesday

Time Temperature Precipitation Wind Pressure Humidity
00:00 +9°C° 0 mm 2 mps 620 mmHg 91%
01:00 +9°C° 0 mm 2 mps 620 mmHg 84%
02:00 +8°C° 0 mm 2 mps 620 mmHg 77%
03:00 +8°C° 0 mm 2 mps 619 mmHg 70%
04:00 +9°C° 0 mm 2 mps 619 mmHg 65%
05:00 +9°C° 0 mm 2 mps 620 mmHg 59%
06:00 +10°C° 0 mm 2 mps 620 mmHg 54%
07:00 +14°C° 0 mm 2 mps 621 mmHg 46%
08:00 +16°C° 0 mm 1 mps 622 mmHg 38%
09:00 +20°C° 0 mm 1 mps 623 mmHg 30%
10:00 +21°C° 0 mm 1 mps 624 mmHg 30%
11:00 +22°C° 0 mm 1 mps 624 mmHg 30%
12:00 +23°C° 0 mm 2 mps 624 mmHg 31%
13:00 +23°C° 0 mm 2 mps 624 mmHg 34%
14:00 +23°C° 0 mm 2 mps 624 mmHg 37%
15:00 +23°C° 0 mm 2 mps 623 mmHg 40%
16:00 +20°C° 0 mm 2 mps 623 mmHg 47%
17:00 +20°C° 0 mm 1 mps 622 mmHg 55%
18:00 +19°C° 0 mm 1 mps 622 mmHg 62%
19:00 +16°C° 0 mm 1 mps 621 mmHg 70%
20:00 +14°C° 0 mm 1 mps 621 mmHg 78%
21:00 +11°C° 0 mm 0 mps 620 mmHg 87%
22:00 +12°C° 0 mm 1 mps 620 mmHg 87%
23:00 +12°C° 0 mm 1 mps 620 mmHg 87%

Tomorrow, 8 July, Wednesday

Time Temperature Precipitation Wind Pressure Humidity
00:00 +12°C° 0 mm 1 mps 620 mmHg 88%
01:00 +12°C° 0 mm 1 mps 620 mmHg 89%
02:00 +11°C° 0 mm 1 mps 620 mmHg 89%
03:00 +11°C° 0 mm 1 mps 620 mmHg 90%
04:00 +12°C° 0 mm 1 mps 620 mmHg 85%
05:00 +13°C° 0 mm 1 mps 621 mmHg 80%
06:00 +13°C° 0 mm 0 mps 621 mmHg 75%
07:00 +18°C° 0 mm 1 mps 622 mmHg 65%
08:00 +20°C° 0 mm 1 mps 623 mmHg 55%
09:00 +22°C° 0 mm 1 mps 624 mmHg 45%
10:00 +23°C° 0 mm 2 mps 624 mmHg 42%
11:00 +24°C° 0 mm 2 mps 625 mmHg 40%
12:00 +25°C° 0 mm 2 mps 625 mmHg 37%
13:00 +25°C° 0 mm 2 mps 625 mmHg 39%
14:00 +25°C° 0 mm 2 mps 624 mmHg 40%
15:00 +25°C° 0 mm 2 mps 624 mmHg 41%
16:00 +24°C° 0.2 mm 2 mps 624 mmHg 50%
17:00 +22°C° 0.2 mm 1 mps 623 mmHg 58%
18:00 +21°C° 0.2 mm 1 mps 622 mmHg 67%
19:00 +19°C° 0.7 mm 1 mps 622 mmHg 75%
20:00 +16°C° 0.7 mm 2 mps 622 mmHg 82%
21:00 +14°C° 0.7 mm 2 mps 622 mmHg 90%
22:00 +14°C° 0 mm 2 mps 622 mmHg 88%
23:00 +14°C° 0 mm 1 mps 621 mmHg 86%

Day after tomorrow, 9 July, Thursday

Time Temperature Precipitation Wind Pressure Humidity
00:00 +14°C° 0 mm 1 mps 621 mmHg 84%
01:00 +14°C° 0 mm 1 mps 621 mmHg 82%
02:00 +14°C° 0 mm 1 mps 620 mmHg 79%
03:00 +13°C° 0 mm 1 mps 620 mmHg 76%
04:00 +14°C° 0 mm 1 mps 621 mmHg 75%
05:00 +15°C° 0 mm 1 mps 621 mmHg 74%
06:00 +16°C° 0 mm 1 mps 622 mmHg 73%
07:00 +19°C° 0 mm 1 mps 623 mmHg 66%
08:00 +21°C° 0 mm 1 mps 624 mmHg 58%
09:00 +23°C° 0 mm 1 mps 625 mmHg 50%
10:00 +24°C° 0 mm 2 mps 625 mmHg 47%
11:00 +25°C° 0 mm 2 mps 625 mmHg 44%
12:00 +26°C° 0 mm 2 mps 625 mmHg 41%
13:00 +25°C° 0.6 mm 2 mps 625 mmHg 45%
14:00 +25°C° 0.6 mm 2 mps 624 mmHg 49%
15:00 +24°C° 0.6 mm 2 mps 624 mmHg 53%
16:00 +23°C° 0.7 mm 2 mps 623 mmHg 59%
17:00 +23°C° 0.7 mm 1 mps 623 mmHg 64%
18:00 +22°C° 0.7 mm 1 mps 623 mmHg 70%
19:00 +20°C° 0.9 mm 1 mps 622 mmHg 75%
20:00 +18°C° 0.9 mm 1 mps 622 mmHg 80%
21:00 +15°C° 0.9 mm 1 mps 621 mmHg 85%
22:00 +15°C° 0.3 mm 1 mps 621 mmHg 84%
23:00 +15°C° 0.3 mm 1 mps 621 mmHg 83%

10 July, Friday

Time Temperature Precipitation Wind Pressure Humidity
00:00 +15°C° 0.3 mm 1 mps 621 mmHg 82%
01:00 +14°C° 0 mm 1 mps 620 mmHg 81%
02:00 +14°C° 0 mm 1 mps 620 mmHg 80%
03:00 +13°C° 0 mm 1 mps 620 mmHg 79%
04:00 +14°C° 0 mm 1 mps 620 mmHg 80%
05:00 +15°C° 0 mm 1 mps 621 mmHg 80%
06:00 +15°C° 0 mm 0 mps 622 mmHg 81%
07:00 +18°C° 0.1 mm 1 mps 622 mmHg 74%
08:00 +20°C° 0.1 mm 1 mps 623 mmHg 67%
09:00 +20°C° 0.1 mm 2 mps 624 mmHg 60%
10:00 +21°C° 0.1 mm 2 mps 624 mmHg 57%
11:00 +21°C° 0.1 mm 2 mps 624 mmHg 54%
12:00 +22°C° 0.1 mm 3 mps 624 mmHg 51%
13:00 +22°C° 0.3 mm 3 mps 624 mmHg 55%
14:00 +21°C° 0.3 mm 3 mps 623 mmHg 58%
15:00 +21°C° 0.3 mm 3 mps 623 mmHg 61%
16:00 +20°C° 0.4 mm 2 mps 623 mmHg 67%
17:00 +19°C° 0.4 mm 2 mps 622 mmHg 73%
18:00 +19°C° 0.4 mm 1 mps 622 mmHg 79%
19:00 +16°C° 0.1 mm 1 mps 622 mmHg 84%
20:00 +15°C° 0.1 mm 1 mps 622 mmHg 89%
21:00 +14°C° 0.1 mm 1 mps 621 mmHg 94%
22:00 +13°C° 0 mm 1 mps 621 mmHg 94%
23:00 +13°C° 0 mm 1 mps 621 mmHg 94%

11 July, Saturday

Time Temperature Precipitation Wind Pressure Humidity
00:00 +13°C° 0 mm 1 mps 621 mmHg 94%
01:00 +13°C° 0 mm 1 mps 621 mmHg 94%
02:00 +11°C° 0 mm 0 mps 621 mmHg 94%
03:00 +11°C° 0 mm 0 mps 620 mmHg 94%
04:00 +12°C° 0 mm 0 mps 621 mmHg 92%
05:00 +13°C° 0 mm 0 mps 621 mmHg 90%
06:00 +13°C° 0 mm 0 mps 622 mmHg 88%
07:00 +16°C° 0 mm 1 mps 622 mmHg 80%
08:00 +19°C° 0 mm 1 mps 623 mmHg 72%
09:00 +20°C° 0 mm 2 mps 624 mmHg 64%
10:00 +20°C° 0.5 mm 2 mps 624 mmHg 63%
11:00 +21°C° 0.5 mm 2 mps 624 mmHg 63%
12:00 +23°C° 0.5 mm 2 mps 624 mmHg 62%
13:00 +21°C° 1.7 mm 2 mps 624 mmHg 65%
14:00 +21°C° 1.7 mm 2 mps 623 mmHg 69%
15:00 +21°C° 1.7 mm 1 mps 623 mmHg 73%
16:00 +20°C° 0.9 mm 1 mps 622 mmHg 75%
17:00 +20°C° 0.9 mm 1 mps 622 mmHg 78%
18:00 +17°C° 0.9 mm 0 mps 622 mmHg 80%
19:00 +16°C° 0.1 mm 0 mps 622 mmHg 83%
20:00 +14°C° 0.1 mm 0 mps 621 mmHg 86%
21:00 +14°C° 0.1 mm 1 mps 621 mmHg 90%
22:00 +14°C° 0 mm 1 mps 621 mmHg 89%
23:00 +14°C° 0 mm 1 mps 621 mmHg 89%

12 July, Sunday

Time Temperature Precipitation Wind Pressure Humidity
00:00 +14°C° 0 mm 1 mps 621 mmHg 89%
01:00 +13°C° 0 mm 1 mps 620 mmHg 89%
02:00 +13°C° 0 mm 1 mps 620 mmHg 90%
03:00 +13°C° 0 mm 1 mps 620 mmHg 91%
04:00 +14°C° 0 mm 1 mps 621 mmHg 90%
05:00 +15°C° 0 mm 1 mps 621 mmHg 88%
06:00 +16°C° 0 mm 1 mps 622 mmHg 86%
07:00 +18°C° 0.4 mm 1 mps 623 mmHg 81%
08:00 +19°C° 0.4 mm 1 mps 623 mmHg 75%
09:00 +21°C° 0.4 mm 1 mps 624 mmHg 70%
10:00 +21°C° 1 mm 1 mps 624 mmHg 68%
11:00 +22°C° 1 mm 1 mps 624 mmHg 67%
12:00 +23°C° 1 mm 1 mps 624 mmHg 66%
13:00 +22°C° 1.4 mm 1 mps 624 mmHg 65%
14:00 +22°C° 1.4 mm 1 mps 624 mmHg 65%
15:00 +22°C° 1.4 mm 1 mps 624 mmHg 65%
16:00 +21°C° 1.2 mm 1 mps 623 mmHg 70%
17:00 +20°C° 1.2 mm 1 mps 623 mmHg 74%
18:00 +19°C° 1.2 mm 1 mps 623 mmHg 79%
19:00 +18°C° 0.8 mm 1 mps 622 mmHg 82%
20:00 +15°C° 0.8 mm 1 mps 622 mmHg 84%
21:00 +14°C° 0.8 mm 1 mps 622 mmHg 87%
22:00 +14°C° 0.5 mm 1 mps 621 mmHg 86%
23:00 +13°C° 0.5 mm 1 mps 621 mmHg 86%
Show more